Regional Weather Roundup
Issued by NWS Little Rock, AR

Home | Current Version | Previous Version | Graphics & Text | Print | Product List | Glossary On
Versions: 1 2 3 4 5 6 7 8 9 10 11 12 13 14 15 16 17 18 19 20 21 22 23 24 25 26 27 28 29 30 31 32 33 34 35 36 37 38 39 40 41 42 43 44 45 46 47 48 49 50
000
ASUS44 KLZK 280205
RWRLZK

WEATHER ROUNDUP FOR ARKANSAS
NATIONAL WEATHER SERVICE LITTLE ROCK AR
900 PM CDT WED AUG 27 2014

NOTE: "FAIR" INDICATES FEW OR NO CLOUDS BELOW 12,000 FEET WITH NO
SIGNIFICANT WEATHER AND/OR OBSTRUCTIONS TO VISIBILITY.

ARZ001-003-010-029-280300-
NORTHWEST ARKANSAS

CITY           SKY/WX    TMP DP  RH WIND       PRES   REMARKS
FAYETTEVILLE   PTCLDY    76  70  82 CALM      30.05R
FORT SMITH     PTCLDY    84  69  60 E5        29.99R HX  88
HARRISON       PTCLDY    80  71  74 S6        30.06R
BENTONVILLE    PTCLDY    81  68  65 CALM      30.06R
ROGERS         PTCLDY    83  67  58 SW7       30.06R HX  85
SILOAM SPGS      N/A     81  63  54 S6        30.05R
HIGHFILL       PTCLDY    79  67  66 SW5       30.04R
SPRINGDALE     CLEAR     84  68  58 S6        30.06R HX  87
$$

ARZ004-005-016-280300-
NORTH CENTRAL ARKANSAS

CITY           SKY/WX    TMP DP  RH WIND       PRES   REMARKS
BATESVILLE     CLEAR     82  70  65 SE5       30.03R HX  86
FLIPPIN        PTCLDY    82  66  57 CALM      30.04R HX  85
MTN HOME       PTCLDY    82  68  62 SE5       30.04R HX  85
$$

ARZ040-041-280300-
WEST CENTRAL ARKANSAS

CITY           SKY/WX    TMP DP  RH WIND       PRES   REMARKS
MENA           CLEAR     79  72  78 CALM      30.04R
MOUNT IDA      CLEAR     77  71  82 CALM      30.01R
$$

ARZ009-017-025-026-028-280300-
NORTHEAST ARKANSAS

CITY           SKY/WX    TMP DP  RH WIND       PRES   REMARKS
CORNING          N/A     82  75  78 SE5       30.04R HX  89
JONESBORO      CLEAR     79  71  76 E3        30.03R
NEWPORT        CLEAR     83  74  74 E5        30.04R HX  89
WALNUT RIDGE   CLEAR     79  55  44 SE7       30.02R
BLYTHEVILLE    CLEAR     82  74  76 S3        30.04R HX  88
$$

ARZ022-023-033-042-044-280300-
CENTRAL ARKANSAS

CITY           SKY/WX    TMP DP  RH WIND       PRES   REMARKS
LITTLE ROCK    PTCLDY    80  68  66 CALM      30.01R
N LITTLE ROCK  PTCLDY    82  70  65 SE6       30.01R HX  86
JACKSONVILLE   CLEAR     77  72  84 CALM      30.01R
SEARCY         CLEAR     78  73  84 MISG      30.03R
HOT SPRINGS    CLEAR     81  69  67 CALM      30.02R
RUSSELLVILLE   CLEAR     78  70  76 CALM      30.01R
CLINTON        FAIR      79  72  78 CALM      30.04R
$$

ARZ036-280300-
EAST ARKANSAS

CITY           SKY/WX    TMP DP  RH WIND       PRES   REMARKS
WEST MEMPHIS   CLEAR     78  68  71 CALM      30.01R
$$

ARZ050-053-066-070-073-280300-
SOUTHWEST ARKANSAS

CITY           SKY/WX    TMP DP  RH WIND       PRES   REMARKS
ARKADELPHIA    FAIR      78  77  97 CALM      30.00R
CAMDEN         CLEAR     73  68  83 CALM      29.99R
TEXARKANA      CLEAR     77  69  76 CALM      30.00R
EL DORADO      CLEAR     74  71  91 CALM      30.00R
DE QUEEN       CLEAR     76  73  91 CALM      29.99R
$$

ARZ056-057-069-280300-
SOUTHEAST ARKANSAS

CITY           SKY/WX    TMP DP  RH WIND       PRES   REMARKS
PINE BLUFF     CLEAR     79  71  76 S3        30.00R
STUTTGART      CLEAR     82  70  65 E6        30.02R HX  86
MONTICELLO     CLEAR     76  70  82 CALM      30.00R

$$




USA.gov is the U.S. government's official web portal to all federal, state and local government web resources and services.